Regional Weather Roundup
Issued by NWS Sioux Falls, SD

Home | Current Version | Previous Version | Text Only | Print | Product List | Glossary On
Versions: 1 2 3 4 5 6 7 8 9 10 11 12 13 14 15 16 17 18 19 20 21 22 23 24 25 26 27 28 29 30 31 32 33 34 35 36 37 38 39 40 41 42 43 44 45 46 47 48 49 50
000
ASUS43 KFSD 261010
RWRFSD

WEATHER ROUNDUP FOR SE SOUTH DAKOTA/SW MINNESOTA/NW IOWA
NATIONAL WEATHER SERVICE SIOUX FALLS SD
400 AM CST FRI DEC 26 2014

NOTE: "FAIR" INDICATES FEW OR NO CLOUDS BELOW 12,000 FEET WITH NO
SIGNIFICANT WEATHER AND OR OBSTRUCTIONS TO VISIBILITY.


SDZ038>040-050-052>070-261100-
SOUTHEAST SOUTH DAKOTA

CITY           SKY/WX    TMP DP  RH WIND       PRES   REMARKS
CHAMBERLAIN    CLOUDY    25  22  89 N12       30.03R WCI  15
HURON          LGT SNOW  25  23  92 N15       30.01R FOG     WCI  13
MADISON        CLOUDY    25  25 100 N16       29.94R WCI  12
MITCHELL       CLOUDY    27  24  89 NW12      30.01R WCI  17
SIOUX FALLS    CLOUDY    28  25  88 N14       29.94R WCI  17
WINNER         FLURRIES  26  22  84 N17       30.02R WCI  13
YANKTON        CLOUDY    28  25  86 NW16      29.97R WCI  17
$$

MNZ071-072-080-081-089-090-097-098-261100-
SOUTHWEST MINNESOTA

CITY           SKY/WX    TMP DP  RH WIND       PRES   REMARKS
FAIRMONT       CLOUDY    32  28  86 N12       29.84R WCI  23
JACKSON        CLOUDY    32  30  93 VRB10     29.86R FOG     WCI  24
LUVERNE        MIX PCPN  30  28  93 N13       29.91R WCI  20
MARSHALL       CLOUDY    27  21  80 N17       29.93S WCI  14
MONTEVIDEO     CLOUDY    27  27 100 NE12      29.96S WCI  16
PIPESTONE      MIX PCPN  27  25  93 N14G21    29.90R WCI  15
REDWOOD FALLS  CLOUDY    31  28  89 N10       29.91R WCI  22
TRACY          MIX PCPN  29  28  96 N16       29.91R WCI  17
WINDOM         CLOUDY    30  30 100 N15       29.88R FOG     WCI  19
WORTHINGTON    CLOUDY    28 -18  12 N16       29.89R WCI  17
$$

IAZ001>003-012>014-020>022-031-032-NEZ013-014-SDZ071-261100-
NORTHWEST IOWA

CITY           SKY/WX    TMP DP  RH WIND       PRES   REMARKS
CHEROKEE       CLOUDY    33  32  98 N12G18    29.84S WCI  24
DENISON        CLOUDY    30  30 100 N10       29.82R FOG     WCI  21
ESTHERVILLE    CLOUDY    31  30  96 N16       29.83R FOG     WCI  20
LE MARS        CLOUDY    32  32 100 N15       29.89R WCI  22
ORANGE CITY    CLOUDY    32  30  93 N12G17    29.87R FOG     WCI  23
SHELDON        CLOUDY    30  30 100 N14G20    29.86R FOG     WCI  20
SIOUX CITY     CLOUDY    34  30  85 N13       29.89R WCI  25
SPENCER        CLOUDY    33  30  88 N15       29.83F WCI  23
STORM LAKE     MOCLDY    30  30 100 N16       29.82S WCI  19
$$

ABBREVIATIONS USED IN REMARKS
   TC - TEMPERATURE IN CELSIUS
  WCI - WIND CHILL INDEX
   HX - HEAT INDEX
  VSB - VISIBILITY



USA.gov is the U.S. government's official web portal to all federal, state and local government web resources and services.